Starlink 32898

operational
NORAD ID: 62998 Int'l Des: 2025-031 Owner: SPXS Country: US Constellation: starlink
LEOCIRCULAR

About Starlink 32898

Description loading...

Live Position

Loading 3D Globe...

Upcoming Passes

Altitude History

Altitude vs Time

uPlot chart will show altitude changes over time

Two-Line Element Set

1 62998U 25031T 26035.21898817 .00025803 00000-0 94320-3 0 9994
2 62998 43.0012 332.5926 0005034 237.3458 122.6908 15.27595311 55973
Epoch: Feb 4, 2026 • Age: 11 hours

Current Status

Altitude 491.8 km
Velocity 7.62 km/s
Sub-Earth Point -36.55°S, 96.64°W
Launch Date Feb 11, 2025
Age 0.9 years
Type internet

Technical Details

Classification Payload
Mass 730.00 kg
Dry Mass 700.00 kg
Total Mass 730.00 kg
Length 0.30 m
Diameter 4.10 m
Span 29.00 m
Shape Box + pan
Manufacturer SPXS
Bus Type Starlink V2M
Phase Status In Orbit
Owner/State SPXS/US

Large Constellations

Loading constellations...